Hourly Data Report for July 28, 2021

BANCROFT AUTO
ONTARIO
Current Station Operator: ECCC - MSC

45°04'17.000" N
77°52'44.000" W
330.70 m
616I001
71294
WRK

Download Data

Hourly Data (July 2021)
Hourly Data Report for July 28, 2021
TIME
LST
Temp Definition
°C
Dew Point Definition
°C
Rel Hum Definition
%
Precip. Amount Definition
mm

Wind Dir Definition
10's deg

Wind Spd Definition
km/h
Visibility Definition
km
Stn Press Definition
kPa
Hmdx Definition


Wind Chill Definition


Weather Definition


00:00 12.8 12.7 99 0.0 33 2   97.90     LegendNANA
01:00 12.4 12.3 99 0.0 31 2   97.90     LegendNANA
02:00 12.3 12.2 99 0.0 1 2   97.91     LegendNANA
03:00 11.7 11.7 99 0.0 35 1   97.93     LegendNANA
04:00 11.4 11.3 99 0.0 2 3   97.94     LegendNANA
05:00 10.9 10.8 100 0.0 2 3   97.99     LegendNANA
06:00 11.0 10.9 99 0.0 2 3   98.02     LegendNANA
07:00 12.4 12.3 99 0.0 1 2   98.06     LegendNANA
08:00 14.6 14.3 99 0.0 4 3   98.08     LegendNANA
09:00 17.1 14.7 86 0.0 15 3   98.06     LegendNANA
10:00 20.4 13.1 63 0.0 2 4   98.05     LegendNANA
11:00 21.1 10.5 51 0.0 12 8   98.03     LegendNANA
12:00 21.0 10.0 49 0.0 5 6   97.97     LegendNANA
13:00 22.3 10.1 46 0.0 35 5   97.94     LegendNANA
14:00 22.4 9.3 43 0.0 32 4   97.98     LegendNANA
15:00 22.8 7.7 38 0.0 27 4   97.91     LegendNANA
16:00 23.2 9.7 42 0.0 34 5   97.86     LegendNANA
17:00 23.3 9.0 40 0.0 31 5   97.81     LegendNANA
18:00 22.0 11.4 51 0.0 20 4   97.74     LegendNANA
19:00 18.8 13.8 73 0.0 21 1   97.75     LegendNANA
20:00 16.2 14.4 89 0.0   0   97.76     LegendNANA
21:00 15.6 14.3 92 0.0   0   97.77     LegendNANA
22:00 14.0 13.3 96 0.0 0 1   97.71     LegendNANA
23:00 16.4 13.8 84 0.0 21 7   97.67     LegendNANA

Notes on Data Quality.

Legend

  • E = Estimated
  • M = Missing
  • NA = Not Available*
  • [empty] = Indicates an unobserved value
Date modified: